Sparta, IL

4:23 AM CDT on April 27, 2018 (GMT -0500)
Sparta Community-Hunter

Weather History for KSAR - February, 2013

Change the Weather History Date:

Thursday, February 7, 2013

  Actual Average (KBLV) Record (KBLV)
Temperature  
Mean Temperature 50 °F -  
Max Temperature 64 °F 38 °F 68 °F (2017)
Min Temperature 35 °F 19 °F -6 °F (2014)
Degree Days  
Heating Degree Days 16    
Moisture  
Dew Point 41 °F    
Average Humidity 84    
Maximum Humidity 100    
Minimum Humidity 42    
Precipitation  
Precipitation 0.10 in - - ()
Sea Level Pressure  
Sea Level Pressure 29.96 in    
Wind  
Wind Speed 8 mph (SSE)    
Max Wind Speed 15 mph    
Max Gust Speed 23 mph    
Visibility 9 miles    
Events Rain    
Averages and records for this station are not official NWS values.
T = Trace of Precipitation, MM = Missing Value Source: NWS Daily Summary

Daily Weather History Graph

Daily Weather History Graph

Search for Another Location

Airport or City:

Astronomy

Feb. 07, 2013 Rise Set
Actual Time 6:57 AM CST 5:28 PM CST
Civil Twilight 6:30 AM CST 5:56 PM CST
Nautical Twilight 5:58 AM CST 6:27 PM CST
Astronomical Twilight 5:28 AM CST 6:58 PM CST
Moon 4:35 AM CST (2/7) 2:54 PM CST (2/7)
Length of Visible Light 11h 26m
Length of Day
10h 31m
Waning Crescent, 9% of the Moon is Illuminated
Feb 7
Waning Crescent
Feb 10
New
Feb 17
First Quarter
Feb 25
Full
Mar 4
Last Quarter

Hourly Weather History & Observations

Time (CST) Temp. Windchill Dew Point Humidity Pressure Visibility Wind Dir Wind Speed Gust Speed Precip Events Conditions
12:15 AM 39.2 °F 33.0 °F 35.6 °F 87% 30.08 in 10.0 mi SE 9.2 mph - N/A   Clear
12:35 AM 39.2 °F 33.0 °F 35.6 °F 87% 30.07 in 10.0 mi SE 9.2 mph - N/A   Clear
12:55 AM 39.2 °F 34.2 °F 35.6 °F 87% 30.06 in 10.0 mi SE 6.9 mph - N/A   Clear
1:15 AM 37.4 °F 32.8 °F 35.6 °F 93% 30.06 in 10.0 mi ESE 5.8 mph - N/A   Clear
1:35 AM 37.4 °F 32.8 °F 35.6 °F 93% 30.06 in 10.0 mi ESE 5.8 mph - N/A   Clear
1:55 AM 37.4 °F 32.8 °F 35.6 °F 93% 30.06 in 10.0 mi SE 5.8 mph - N/A   Clear
2:15 AM 37.4 °F 32.8 °F 35.6 °F 93% 30.06 in 10.0 mi SE 5.8 mph - N/A   Clear
2:35 AM 37.4 °F 32.1 °F 35.6 °F 93% 30.05 in 10.0 mi SE 6.9 mph - N/A   Clear
2:55 AM 35.6 °F 29.9 °F 35.6 °F 100% 30.05 in 10.0 mi ESE 6.9 mph - N/A   Clear
3:15 AM 35.6 °F 29.2 °F 35.6 °F 100% 30.04 in 10.0 mi ESE 8.1 mph - N/A   Clear
3:35 AM 35.6 °F 29.9 °F 35.6 °F 100% 30.04 in 10.0 mi ESE 6.9 mph - N/A   Clear
3:55 AM 35.6 °F 29.9 °F 35.6 °F 100% 30.03 in 10.0 mi ESE 6.9 mph - N/A   Clear
4:15 AM 35.6 °F 30.7 °F 35.6 °F 100% 30.03 in 10.0 mi ESE 5.8 mph - N/A   Clear
4:35 AM 35.6 °F 30.7 °F 35.6 °F 100% 30.02 in 10.0 mi ESE 5.8 mph - N/A   Clear
4:55 AM 35.6 °F 32.8 °F 35.6 °F 100% 30.02 in 10.0 mi ESE 3.5 mph - N/A   Clear
5:15 AM 35.6 °F 29.9 °F 35.6 °F 100% 30.01 in 10.0 mi ESE 6.9 mph - N/A   Clear
5:35 AM 35.6 °F 30.7 °F 35.6 °F 100% 30.02 in 10.0 mi SE 5.8 mph - N/A   Clear
5:55 AM 35.6 °F 29.9 °F 35.6 °F 100% 30.00 in 10.0 mi SE 6.9 mph - N/A   Clear
6:15 AM 35.6 °F 29.9 °F 35.6 °F 100% 30.00 in 10.0 mi SE 6.9 mph - N/A   Clear
6:35 AM 35.6 °F 29.2 °F 35.6 °F 100% 30.00 in 10.0 mi SE 8.1 mph - N/A   Clear
6:55 AM 35.6 °F 29.9 °F 35.6 °F 100% 30.00 in 10.0 mi SE 6.9 mph - N/A   Clear
7:15 AM 35.6 °F 29.9 °F 35.6 °F 100% 30.00 in 10.0 mi SE 6.9 mph - N/A   Clear
7:35 AM 35.6 °F 29.2 °F 35.6 °F 100% 29.99 in 10.0 mi SE 8.1 mph - N/A   Clear
7:55 AM 35.6 °F 29.2 °F 35.6 °F 100% 29.99 in 10.0 mi SE 8.1 mph - N/A   Clear
8:15 AM 37.4 °F 31.4 °F 35.6 °F 93% 29.99 in 10.0 mi SE 8.1 mph - N/A   Clear
8:35 AM 39.2 °F 34.2 °F 37.4 °F 93% 29.98 in 10.0 mi SE 6.9 mph - N/A   Clear
8:55 AM 42.8 °F 38.6 °F 37.4 °F 81% 29.98 in 10.0 mi SSE 6.9 mph - N/A   Clear
9:15 AM 44.6 °F 40.2 °F 37.4 °F 76% 29.97 in 10.0 mi SSE 8.1 mph - N/A   Clear
9:35 AM 48.2 °F - 37.4 °F 66% 29.97 in 10.0 mi SSE 4.6 mph - N/A   Clear
9:55 AM 51.8 °F - 35.6 °F 54% 29.97 in 10.0 mi South 6.9 mph - N/A   Scattered Clouds
10:15 AM 53.6 °F - 35.6 °F 51% 29.97 in 10.0 mi South 13.8 mph - N/A   Mostly Cloudy
10:35 AM 55.4 °F - 37.4 °F 51% 29.96 in 10.0 mi South 10.4 mph - N/A   Mostly Cloudy
10:55 AM 55.4 °F - 37.4 °F 51% 29.95 in 10.0 mi SSW 12.7 mph - N/A   Mostly Cloudy
11:15 AM 57.2 °F - 39.2 °F 51% 29.95 in 10.0 mi South 11.5 mph - N/A   Scattered Clouds
11:35 AM 59.0 °F - 39.2 °F 48% 29.94 in 10.0 mi SSW 9.2 mph - N/A   Scattered Clouds
11:55 AM 59.0 °F - 39.2 °F 48% 29.93 in 10.0 mi SSW 9.2 mph - N/A   Mostly Cloudy
12:15 PM 60.8 °F - 39.2 °F 45% 29.91 in 10.0 mi SW 8.1 mph - N/A   Mostly Cloudy
12:35 PM 60.8 °F - 39.2 °F 45% 29.90 in 10.0 mi SSW 6.9 mph - N/A   Scattered Clouds
12:55 PM 62.6 °F - 41.0 °F 45% 29.89 in 10.0 mi SSW 10.4 mph - N/A   Scattered Clouds
1:15 PM 64.4 °F - 41.0 °F 42% 29.88 in 10.0 mi SSW 11.5 mph - N/A   Clear
1:35 PM 64.4 °F - 42.8 °F 45% 29.87 in 10.0 mi SSW 10.4 mph 16.1 mph N/A   Scattered Clouds
1:55 PM 64.4 °F - 42.8 °F 45% 29.86 in 10.0 mi South 9.2 mph - N/A   Scattered Clouds
2:15 PM 64.4 °F - 42.8 °F 45% 29.85 in 10.0 mi South 8.1 mph - N/A   Clear
2:35 PM 64.4 °F - 42.8 °F 45% 29.85 in 10.0 mi SW 9.2 mph - N/A   Clear
2:55 PM 64.4 °F - 44.6 °F 49% 29.85 in 10.0 mi South 5.8 mph - N/A   Mostly Cloudy
3:15 PM 64.4 °F - 44.6 °F 49% 29.84 in 10.0 mi South 10.4 mph - N/A   Mostly Cloudy
3:35 PM 64.4 °F - 46.4 °F 52% 29.84 in 10.0 mi South 10.4 mph - N/A   Mostly Cloudy
3:55 PM 62.6 °F - 50.0 °F 63% 29.84 in 10.0 mi SSW 6.9 mph - N/A Rain Light Rain
4:15 PM 53.6 °F - 51.8 °F 94% 29.87 in 7.0 mi NW 11.5 mph 21.9 mph 0.03 in Rain Heavy Rain
4:35 PM 50.0 °F - 50.0 °F 100% 29.88 in 7.0 mi NW 5.8 mph - 0.06 in Rain Rain
4:55 PM 50.0 °F - 50.0 °F 100% 29.88 in 7.0 mi Calm Calm - 0.09 in Rain Rain
5:15 PM 50.0 °F - 50.0 °F 100% 29.88 in 5.0 mi Calm Calm - N/A Rain Light Rain
5:35 PM 48.2 °F - 48.2 °F 100% 29.89 in 7.0 mi Calm Calm - N/A   Drizzle
5:55 PM 48.2 °F - 48.2 °F 100% 29.89 in 10.0 mi Calm Calm - N/A   Overcast
6:15 PM 48.2 °F - 48.2 °F 100% 29.90 in 7.0 mi Calm Calm - N/A   Overcast
6:35 PM 48.2 °F - 48.2 °F 100% 29.91 in 5.0 mi WNW 3.5 mph - N/A   Heavy Drizzle
6:55 PM 48.2 °F - 48.2 °F 100% 29.92 in 5.0 mi WNW 3.5 mph - N/A   Drizzle
7:15 PM 48.2 °F - 48.2 °F 100% 29.91 in 5.0 mi NW 4.6 mph - N/A   Drizzle
7:35 PM 48.2 °F - 48.2 °F 100% 29.91 in 5.0 mi NW 4.6 mph - N/A Rain Light Rain
7:55 PM 48.2 °F - 48.2 °F 100% 29.92 in 5.0 mi WNW 8.1 mph - N/A Rain Light Rain
8:15 PM 48.2 °F - 48.2 °F 100% 29.94 in 5.0 mi WNW 9.2 mph - 0.01 in Rain Light Rain
8:35 PM 48.2 °F - 48.2 °F 100% 29.94 in 5.0 mi NNW 8.1 mph - 0.01 in   Drizzle
8:55 PM 46.4 °F 40.1 °F 46.4 °F 100% 29.94 in 7.0 mi NW 15.0 mph 19.6 mph 0.01 in Rain Rain
9:15 PM 46.4 °F 40.4 °F 46.4 °F 100% 29.96 in 10.0 mi NW 13.8 mph 21.9 mph N/A   Light Drizzle
9:35 PM 46.4 °F 41.1 °F 46.4 °F 100% 29.96 in 10.0 mi NNW 11.5 mph 23.0 mph N/A   Overcast
9:55 PM 44.6 °F 37.8 °F 44.6 °F 100% 29.97 in 10.0 mi NNW 15.0 mph 19.6 mph N/A   Overcast
10:15 PM 44.6 °F 38.4 °F 44.6 °F 100% 29.98 in 10.0 mi NW 12.7 mph 23.0 mph N/A   Overcast
10:35 PM 42.8 °F 35.8 °F 42.8 °F 100% 29.98 in 10.0 mi NW 13.8 mph 21.9 mph N/A   Overcast
10:55 PM 42.8 °F 35.8 °F 42.8 °F 100% 29.99 in 10.0 mi NW 13.8 mph 20.7 mph N/A   Overcast
11:15 PM 42.8 °F 36.2 °F 42.8 °F 100% 30.01 in 10.0 mi NW 12.7 mph 20.7 mph N/A   Overcast
11:35 PM 42.8 °F 36.2 °F 42.8 °F 100% 30.02 in 10.0 mi NW 12.7 mph 19.6 mph N/A   Overcast
11:55 PM 42.8 °F 36.2 °F 42.8 °F 100% 30.03 in 10.0 mi NNW 12.7 mph 23.0 mph N/A   Overcast